{"data":{"norad_id":46083,"intl_designator":"2020-055BJ","name":"STARLINK-1579","alt_names":[],"object_type":"PAYLOAD","status":"ACTIVE","operator":null,"country":"US","launch_date":"2020-08-07","launch_site_code":"AFETR","launch_vehicle":null,"mission":null,"orbit_class":"UNKNOWN","rcs_meters":null,"size_class":null,"mass_kg":null,"dimensions":null,"purposes":["comms"],"wikipedia_slug":null,"has_3d_model":false,"image_url":null,"decayed_at":null,"tle_current":{"epoch":"2026-05-25T03:42:58.620960Z","epoch_age_seconds":68474,"freshness":"FRESH","line1":"1 46083U 20055BJ  26145.15484515  .00000867  00000+0  39687-4 0  9991","line2":"2 46083  53.1615 105.5509 0001237  89.5768 270.5375 15.31700087320944","mean_motion":15.31700087,"eccentricity":0.0001237,"inclination_deg":53.1615,"raan_deg":105.5509,"arg_perigee_deg":89.5768,"mean_anomaly_deg":270.5375,"bstar":3.9687e-5,"rev_number":32094,"period_min":94.013182621175,"perigee_km":469.89252983096,"apogee_km":471.58694193542,"semimajor_km":6848.8767358832,"source":"CELESTRAK","updated_at":"2026-05-25T13:38:16.465806Z"}}}